OBJECT AE, 62405

Orbit data source: Space-Track

You're viewing an Uncataloged Satellite

Recently launched and/or uncataloged satellites may have evolving metadata. Metadata may include but not limited to: Owner, Maufacturer, Bus, Motor, and Mission.

OBJECT AE, 62405 is a satellite in LEO that was launched on Sat, 21 Dec 2024 UTC via an FALCON 9 launch vehicle from the Air Force Western Test Range (AFWTR). Unknown objects in Earth's orbit typically refer to objects detected orbiting the Earth but have not yet been identified or cataloged. These objects could be anything from previously untracked satellites, spent rocket stages, debris from satellite collisions, or even natural meteoroids temporarily captured by Earth's gravity.

Loading next visibility...
Identifier
62405, 2024-247AE
Orbit
LEO
Country
Flag of TBDTBD
Related business
Flag of USONDO Space LLC (US)
Manufacturer
ONDO Space
Mission
Operational Commercial Communications
Bus & Motor
CUBESAT 0.5U, Unknown motor
Mass
0.25 kg wet, 0.25 kg dry
Launch date (UTC)
2024-12-21 (10 months ago)
Launch vehicle
FALCON 9
Launch site
Air Force Western Test Range (AFWTR)
Object type
Unknown
Shape & HBR
Box, 0.1 m
Radar Cross Section
0.004 m², Small (<0.1 m²)

Expand to show TLE details & history
Last TLE update: 2 days ago

TLE from 2 days ago
0 OBJECT AE
1 62405U 24247AE  25299.21709262  .00033022  00000-0  92168-3 0  9991
2 62405  44.9817 114.6381 0009784 240.3733 119.6179 15.36174263 46772
Epoch: 2025-10-26T05:12Z
TLE epoch observation values (Epoch: 2025-10-26T05:12:36.802Z)
Latitude
-0°
Longitude
1.64829°
Altitude
460.741 km
Speed
7.636 km/s
True Right ascension
07h 38m 33s
True Declination
0° 00' 00"
Sunlit
Object was in daylight at epoch
Visualization orbit readout
Latitude
Unknown
Longitude
Unknown
Altitude
Unknown
Speed
Unknown
Apparent Right ascension
Unknown
Apparent Declination
Unknown
Sunlit
N/A
Visualization observer readout
Local Sidereal Time
03:55:09
Azimuth
Unknown
Elevation
Unknown
Doppler factor
Unknown
Orbital elements
Apogee altitude
465.743 km
Perigee altitude
452.364 km
Semi-major axis
6,837.19 km
Eccentricity
0.00098
Inclination
44.9817°
RAAN
114.6381°
Arg. of periapsis
240.3733°
True anomaly
119.71531°
Mean anomaly
119.6179°
Eccentric anomaly
119.66661°
Mean motion
3.83908 °/min
Orbital period
93.77 mins
BSTAR
0.00092168
Loading maneuver chart data...
Computing Atmospheric mass density...
Loading historical data...
Loading historical data...
Loading historical data...
Loading historical data...
Loading historical data...
Loading historical data...
Loading historical data...

Documentation

Showing up to 5 results
|